EA5CH Weather Reports


time (UTC)temp
F
wind
direction
speed
knots
gust
knots
rain 1hr
in
rain 24hr
in
rain mn
in
humidity
%
barometer
mb
20260510183518 71 0 0.9 2.6 0.00 0.00 0.00 68 1013.3
20260510182518 71 135 1.7 4.3 0.00 0.00 0.00 67 1013.3
20260510181518 72 0.0 1.7 0.00 0.00 0.00 67 1013.2
20260510180538 72 135 2.6 6.1 0.00 0.00 0.00 66 1013.2
20260510175518 72 225 2.6 8.7 0.00 0.00 0.00 66 1013.2
20260510174518 73 225 2.6 6.1 0.00 0.00 0.00 64 1013.1
20260510173517 73 158 1.7 7.0 0.00 0.00 0.00 66 1013.1
20260510172538 73 158 3.5 6.1 0.00 0.00 0.00 66 1013.2
20260510171518 73 135 2.6 6.1 0.00 0.00 0.00 67 1013.2
20260510170518 73 113 1.7 6.1 0.00 0.00 0.00 72 1013.1
20260510165538 73 135 1.7 3.5 0.00 0.00 0.00 70 1013.3
20260510164518 74 135 0.9 3.5 0.00 0.00 0.00 68 1013.4
20260510163539 73 135 1.7 7.0 0.00 0.00 0.00 67 1013.3
20260510162537 73 135 0.9 2.6 0.00 0.00 0.00 68 1013.4
20260510161518 73 113 2.6 5.2 0.00 0.00 0.00 69 1013.4
20260510160538 73 135 2.6 7.0 0.00 0.00 0.00 69 1013.4
20260510155517 73 135 0.9 3.5 0.00 0.00 0.00 70 1013.5
20260510154519 73 135 0.9 3.5 0.00 0.00 0.00 73 1013.6
20260510153537 73 68 0.9 2.6 0.00 0.00 0.00 71 1013.7
20260510152518 73 113 0.9 5.2 0.00 0.00 0.00 74 1013.8
20260510151538 73 135 0.9 2.6 0.00 0.00 0.00 73 1013.8
20260510150518 72 158 0.9 5.2 0.00 0.00 0.00 72 1013.8
20260510145518 72 135 0.9 4.3 0.00 0.00 0.00 75 1013.9
20260510144518 72 135 0.9 4.3 0.00 0.00 0.00 77 1014.0
20260510143518 71 113 1.7 4.3 0.00 0.00 0.00 80 1014.0
20260510142538 71 90 2.6 7.0 0.00 0.00 0.00 80 1014.1
20260510141518 71 90 2.6 6.1 0.00 0.00 0.00 79 1014.3
20260510140616 71 135 1.7 4.3 0.00 0.00 0.00 79 1014.5
20260510135518 71 90 2.6 6.1 0.00 0.00 0.00 77 1014.7
20260510134518 71 135 2.6 6.1 0.00 0.00 0.00 80 1014.8
20260510133518 71 90 1.7 5.2 0.00 0.00 0.00 79 1014.8
20260510132547 71 135 1.7 4.3 0.00 0.00 0.00 80 1014.9
20260510131518 70 158 2.6 6.1 0.00 0.00 0.00 80 1015.1
20260510130518 70 135 3.5 7.0 0.00 0.00 0.00 80 1015.1
20260510125518 70 135 2.6 7.8 0.00 0.00 0.00 80 1015.2
20260510124546 70 135 2.6 7.8 0.00 0.00 0.00 80 1015.4
20260510123518 69 135 2.6 7.8 0.00 0.00 0.00 80 1015.6
20260510122518 69 135 3.5 8.7 0.00 0.00 0.00 79 1015.7
20260510121538 69 135 4.3 10.4 0.00 0.01 0.00 79 1015.6
20260510120518 69 158 5.2 11.3 0.00 0.02 0.00 79 1015.7
20260510115518 70 158 4.3 11.3 0.00 0.03 0.00 77 1015.8
20260510114518 70 158 5.2 12.2 0.00 0.04 0.00 77 1015.8
20260510113518 70 158 3.5 9.6 0.00 0.06 0.00 77 1015.8
20260510112519 70 135 5.2 9.6 0.00 0.06 0.00 77 1015.8
20260510111518 70 135 4.3 7.8 0.00 0.07 0.00 73 1015.8
20260510110518 71 158 3.5 7.0 0.00 0.09 0.00 73 1015.8
20260510105519 71 135 1.7 5.2 0.00 0.10 0.00 75 1015.8
20260510104517 70 135 4.3 7.8 0.00 0.11 0.00 74 1015.8
20260510103519 70 113 3.5 7.0 0.00 0.13 0.00 74 1015.9
20260510102518 71 135 2.6 6.1 0.00 0.13 0.00 73 1015.9
20260510101518 72 135 0.9 6.1 0.00 0.16 0.00 73 1015.9
20260510100517 71 135 0.9 2.6 0.00 0.17 0.00 73 1016.0
20260510095518 70 135 2.6 4.3 0.00 0.20 0.00 74 1016.2
20260510094518 70 135 2.6 5.2 0.00 0.31 0.00 72 1016.3
20260510093538 69 158 2.6 5.2 0.00 0.32 0.00 73 1016.3
20260510092518 69 135 2.6 5.2 0.00 0.38 0.00 74 1016.3
20260510091518 69 135 2.6 7.0 0.00 0.42 0.00 75 1016.3
20260510090518 70 135 2.6 7.8 0.00 0.45 0.00 70 1016.2
20260510085538 71 135 1.7 5.2 0.00 0.56 0.00 71 1016.2
20260510084518 70 135 0.9 2.6 0.00 0.56 0.00 72 1016.3
20260510083518 70 135 1.7 3.5 0.00 0.56 0.00 71 1016.3
20260510082518 70 135 0.9 3.5 0.00 0.56 0.00 73 1016.3
20260510081518 69 135 0.9 4.3 0.00 0.56 0.00 76 1016.3
20260510080518 68 113 0.9 2.6 0.00 0.56 0.00 78 1016.4
20260510075518 68 113 0.9 1.7 0.00 0.56 0.00 78 1016.4
20260510074518 68 0.0 0.9 0.00 0.56 0.00 78 1016.4
20260510073656 68 0.0 0.9 0.00 0.56 0.00 77 1016.4
20260510072518 67 0.0 0.9 0.00 0.56 0.00 79 1016.3
20260510071518 67 0.0 2.6 0.00 0.61 0.00 80 1016.1
20260510070518 66 23 0.9 1.7 0.00 0.61 0.00 82 1016.3
20260510065518 64 0.0 0.9 0.00 0.61 0.00 84 1016.3
20260510064518 63 270 1.7 3.5 0.00 0.61 0.00 85 1016.3
20260510063518 62 248 1.7 3.5 0.00 0.72 0.00 86 1016.3
20260510062518 62 248 1.7 3.5 0.00 0.75 0.00 87 1016.2
20260510061518 61 225 0.9 1.7 0.00 0.76 0.00 87 1016.1
20260510060518 61 248 0.9 1.7 0.00 0.76 0.00 88 1016.0
20260510055518 61 248 1.7 2.6 0.00 0.78 0.00 88 1016.0
20260510054518 61 248 0.9 2.6 0.00 0.80 0.00 88 1015.9
20260510053518 60 248 0.9 1.7 0.00 0.80 0.00 88 1015.9
20260510052518 60 270 0.9 1.7 0.00 0.80 0.00 88 1015.8
20260510051518 60 270 0.9 1.7 0.00 0.80 0.00 88 1015.7
20260510050518 60 270 0.9 1.7 0.00 0.80 0.00 88 1015.7
20260510045518 60 0.0 0.9 0.00 0.80 0.00 89 1015.7
20260510044518 60 293 0.9 1.7 0.00 0.80 0.00 88 1015.8
20260510043518 60 0.0 0.0 0.00 0.80 0.00 89 1015.8
20260510042518 60 0.0 0.9 0.00 0.80 0.00 89 1015.8
20260510041518 59 0.0 0.9 0.00 0.80 0.00 89 1015.7
20260510040518 59 270 0.9 2.6 0.00 0.80 0.00 90 1015.7
20260510035518 58 270 0.9 2.6 0.00 0.80 0.00 90 1015.7
20260510034518 58 0.0 0.9 0.00 0.80 0.00 91 1015.5
20260510033538 58 270 0.9 1.7 0.00 0.80 0.00 91 1015.6
20260510032518 58 270 0.9 2.6 0.00 0.80 0.00 91 1015.4
20260510031538 58 248 2.6 3.5 0.00 0.80 0.00 90 1015.4
20260510030518 58 270 1.7 2.6 0.00 0.80 0.00 90 1015.3
20260510025518 58 270 0.9 1.7 0.00 0.80 0.00 90 1015.3
20260510024518 58 0.0 0.9 0.00 0.80 0.00 90 1015.3
20260510023518 58 270 0.9 1.7 0.00 0.80 0.00 90 1015.1
20260510022518 58 270 2.6 4.3 0.00 0.80 0.00 91 1015.2
20260510021558 58 270 0.9 2.6 0.00 0.80 0.00 91 1015.2
20260510020518 58 270 0.9 2.6 0.00 0.80 0.00 91 1015.2
20260510015518 58 270 0.9 2.6 0.00 0.80 0.00 91 1015.2
20260510014518 58 270 1.7 2.6 0.00 0.80 0.00 92 1015.2
20260510013518 58 270 1.7 3.5 0.00 0.80 0.00 92 1015.3
20260510012538 58 270 2.6 3.5 0.00 0.80 0.00 92 1015.3
20260510011518 59 248 1.7 3.5 0.00 0.80 0.00 93 1015.4
20260510010518 59 248 0.9 1.7 0.00 0.80 0.00 93 1015.2
20260510005518 59 0.0 0.9 0.00 0.80 0.00 93 1015.3
20260510004518 59 0.0 0.9 0.00 0.80 0.00 93 1015.5
20260510003518 59 0.0 0.9 0.00 0.80 0.00 93 1015.7
20260510002518 59 248 0.9 2.6 0.00 0.80 0.00 93 1015.7
20260510001518 59 225 0.9 1.7 0.00 0.80 0.00 93 1015.8
20260510000518 60 0.0 0.0 0.00 0.80 0.00 93 1016.0
20260509235518 60 0.0 0.0 0.00 0.80 0.80 92 1016.0
20260509234518 60 0.0 0.9 0.00 0.80 0.80 92 1016.1
20260509233518 60 0.0 0.0 0.00 0.80 0.80 92 1016.2
20260509232538 60 23 0.9 0.9 0.00 0.80 0.80 92 1016.3
20260509231539 60 0.0 0.9 0.00 0.80 0.80 92 1016.3
20260509230518 60 0.0 0.9 0.00 0.80 0.80 92 1016.3
20260509225518 61 0.0 0.9 0.00 0.80 0.80 92 1016.5
20260509224518 61 0.0 0.0 0.00 0.80 0.80 91 1016.4
20260509223538 61 0.0 0.9 0.00 0.80 0.80 91 1016.3
20260509222518 61 0.0 0.9 0.00 0.80 0.80 91 1016.3
20260509221518 61 0.0 0.0 0.00 0.80 0.80 90 1016.3
20260509220539 61 0.0 0.0 0.00 0.80 0.80 90 1016.4
20260509215518 62 0.0 0.0 0.00 0.80 0.80 90 1016.4
20260509214518 62 0.0 0.0 0.00 0.80 0.80 89 1016.3
20260509213518 62 0.0 0.0 0.00 0.80 0.80 89 1016.2
20260509212518 62 0.0 1.7 0.00 0.80 0.80 88 1016.2
20260509211518 63 0.0 0.0 0.00 0.80 0.80 88 1016.2
20260509210518 63 23 0.9 1.7 0.00 0.80 0.80 87 1016.2
20260509205518 63 0.0 0.9 0.00 0.80 0.80 87 1016.3
20260509204518 64 0.0 0.0 0.00 0.80 0.80 87 1016.1
20260509203538 64 0.0 0.0 0.00 0.80 0.80 86 1016.1
20260509202518 64 0.0 0.0 0.00 0.80 0.80 86 1016.1
20260509201518 65 0.0 0.0 0.00 0.80 0.80 86 1016.0
20260509200518 65 0.0 1.7 0.00 0.80 0.80 86 1015.9
20260509195538 65 225 0.9 4.3 0.00 0.80 0.80 85 1015.7
20260509194518 65 0.0 3.5 0.00 0.80 0.80 84 1015.5
20260509193518 64 0.0 0.0 0.00 0.80 0.80 84 1015.5
20260509192518 64 0.0 0.0 0.00 0.80 0.80 83 1015.5
20260509191518 64 0.0 0.0 0.00 0.80 0.80 83 1015.4
20260509190518 64 0.0 0.9 0.00 0.80 0.80 83 1015.1
20260509185518 64 0.0 0.0 0.00 0.80 0.80 82 1015.0
20260509184518 64 0.0 0.0 0.00 0.80 0.80 82 1014.9